STARLINK-1868 (47154 NORAD) Tracking and Keplerian Element Data

This shows tracking and keplerian element data for the satellite.

Feedback or suggestion? Click here.




ElementValue
Catalog47154
NameSTARLINK-1868
Epoch Orbit1572
Epoch Day60.16668981
Epoch Year2021
RAAN247.1098
Inclination53.0572
Eccentricity0.0001339
Argument of Perigee77.4582
Mean Anonmoly351.4045
Mean Motion15.08197382
Decay Rate-0.01099918
L11 47154U 20088AJ 21060.16668981 -.01099918 00000-0 -76153-1 0 9995
L22 47154 53.0572 247.1098 0001339 77.4582 351.4045 15.08197382 15726

Live tracking and technical data element details for STARLINK-1868 (NORAD 47154). STARLINK-1868 can be tracked NOW for your location showing map with azimuth and elevation plus other details from your city location.

Track the satellite on the map from your city or location and see movement details for azimuth, elevation, latitude, longitude, range, height, and movement on the map or in text.







IsCatalogInMostPopularTable: catalog: 47154, numindb: 34
Update: records affected: 1



GetName: 47154 STARLINK-1868

Hit Count: updated at: Mon, 01 Mar 2021 23:13:41 GMT